Regional Weather Roundup
Issued by NWS Kansas City/Pleasant Hill, MO

Home | Current Version | Previous Version | Text Only | Print | Product List | Glossary On
Versions: 1 2 3 4 5 6 7 8 9 10 11 12 13 14 15 16 17 18 19 20 21 22 23 24 25 26 27
000
ASUS43 KEAX 270910
RWREAX

WEATHER ROUNDUP FOR EASTERN KANSAS AND NORTHWEST MISSOURI
NATIONAL WEATHER SERVICE KANSAS CITY/PLEASANT HILL MO
400 AM CDT TUE SEP 27 2016

KSZ040-057-103>105-MOZ028-029-037-043-271000-
...KANSAS CITY METROPOLITAN AREA...

CITY           SKY/WX    TMP DP  RH WIND       PRES   REMARKS
K.C. INTL      CLEAR     53  45  74 SW8       30.06F
K.C. DOWNTOWN  CLEAR     57  46  66 SW3       30.06F
LEES SUMMIT    CLEAR     55  47  74 SW7       30.07F
OLATHE - IXD   CLEAR     53  47  79 SW6       30.09F
OLATHE - OJC   CLEAR     54  46  74 SW6       30.08F
LAWRENCE       CLEAR     49  48  97 CALM      30.08F

$$

MOZ001>008-011>017-020>025-030>033-038>040-044>046-053-054-271000-
...NORTHERN AND CENTRAL MISSOURI...

CITY           SKY/WX    TMP DP  RH WIND       PRES   REMARKS
ST. JOSEPH     CLEAR     52  49  89 S6        30.06F
MOSBY          SUNNY     48  46  93 CALM      30.06F
WHITEMAN AFB   CLEAR     52  46  79 SW7       30.06F
CLINTON        CLEAR     54  46  76 SW5       30.09F
SEDALIA        CLEAR     54  45  71 SW9       30.07F
WARSAW         NOT AVBL
CHILLICOTHE      N/A     55  48  77 CALM      30.04F
KIRKSVILLE     CLEAR     52  45  77 W6        30.02F

$$

MOZ041-047>049-056>058-063>065-088>090-097-271000-
...EASTERN AND SOUTHERN MISSOURI...

CITY           SKY/WX    TMP DP  RH WIND       PRES   REMARKS
ST. LOUIS INTL CLEAR     57  44  62 W5        30.05F
SPIRIT OF STL  CLEAR     51  48  89 CALM      30.04F
COLUMBIA       CLEAR     56  44  64 W9        30.06F
JEFFERSON CITY CLEAR     51  47  86 E3        30.07F
ROLLA          CLEAR     50  45  83 SW8       30.07F
OSAGE BEACH    CLEAR     48  46  93 CALM      30.10F
SPRINGFIELD    CLEAR     49  44  83 S3        30.11F
BRANSON        CLEAR     50  46  87 SW3       30.13F
JOPLIN         CLEAR     50  45  83 S3        30.12F
WEST PLAINS    CLEAR     50  42  74 W3        30.12F

$$

IAZ060-094-KSZ022-034>040-054-083-096-NEZ052-066-093-271000-
...KANSAS...SOUTHEAST NEBRASKA AND IOWA...

CITY           SKY/WX    TMP DP  RH WIND       PRES   REMARKS
TOPEKA         CLEAR     51  47  86 CALM      30.08F
MANHATTAN      CLEAR     48  47  96 SW3       30.09F
EMPORIA        CLEAR     52  46  80 SW6       30.10F
CHANUTE        CLEAR     53  48  83 SW5       30.11F
WICHITA        CLEAR     53  47  79 SW6       30.12F
OMAHA          CLEAR     53  47  79 NE3       30.04F
LINCOLN        CLEAR     47  44  90 N3        30.08F
FALLS CITY     CLEAR     53  47  79 W3        30.04F
LAMONI         CLEAR     53  45  74 W7        30.01F HAZE
DES MOINES     CLEAR     52  44  74 W3        29.99S

$$





USA.gov is the U.S. government's official web portal to all federal, state and local government web resources and services.